Weather History for Dayton, OH

Change the Weather History Date:

Sunday, March 3, 2013

  Actual Average Record
Temperature  
Mean Temperature 27 °F 36 °F  
Max Temperature 31 °F 44 °F 77 °F (1976)
Min Temperature 23 °F 27 °F 0 °F (1980)
Degree Days  
Heating Degree Days 38 29  
Month to date heating degree days 110 89  
Since 1 July heating degree days 4160 4364  
Cooling Degree Days 0 0  
Month to date cooling degree days 0 0  
Year to date cooling degree days 0 0  
Moisture  
Dew Point 17 °F    
Average Humidity 67    
Maximum Humidity 81    
Minimum Humidity 53    
Precipitation  
Precipitation T in 0.09 in 1.21 in (1953)
Month to date precipitation T 0.26  
Year to date precipitation 4.39 5.21  
Snow  
Snow T in 0.20 in 4.00 in (1960)
Month to date snowfall 0.2 0.5  
Since 1 July snowfall 21.9 19.8  
Snow Depth 0.00 in    
Sea Level Pressure  
Sea Level Pressure 30.08 in    
Wind  
Wind Speed 9 mph (NW)    
Max Wind Speed 20 mph    
Max Gust Speed 24 mph    
Visibility 9 miles    
Events Snow    
T = Trace of Precipitation, MM = Missing Value Source: NWS Daily Summary

Daily Weather History Graph

Daily Weather History Graph

Search for Another Location

Airport:

Trip Planner

Search our weather history database for the weather conditions in past years. The results will help you decide how hot, cold, wet, or windy it might be!

Date:

Astronomy

Mar. 03, 2013 Rise Set
Actual Time 7:06 AM EST 6:31 PM EST
Civil Twilight 6:39 AM EST 6:58 PM EST
Nautical Twilight 6:08 AM EST 7:29 PM EST
Astronomical Twilight 5:37 AM EST 8:01 PM EST
Moon 12:08 AM EST (3/3) 10:21 AM EST (3/3)
Length of Visible Light 12h 18m
Length of Day
11h 24m
Waning Gibbous, 64% of the Moon is Illuminated
Mar 3
Waning Gibbous
Mar 4
Last Quarter
Mar 11
New
Mar 19
First Quarter
Mar 27
Full

Hourly Weather History & Observations

Time (EST) Temp. Windchill Dew Point Humidity Pressure Visibility Wind Dir Wind Speed Gust Speed Precip Events Conditions
12:56 AM 26.1 °F 21.9 °F 19.0 °F 75% 30.09 in 9.0 mi NW 3.5 mph - 0.00 in Snow Light Snow
1:56 AM 26.1 °F 20.5 °F 19.0 °F 75% 30.09 in 8.0 mi NW 4.6 mph - 0.00 in Snow Light Snow
2:22 AM 26.6 °F 20.0 °F 19.4 °F 74% 30.05 in 7.0 mi NNW 5.8 mph - 0.00 in Snow Light Snow
2:56 AM 26.1 °F 20.5 °F 19.9 °F 78% 30.08 in 7.0 mi NNW 4.6 mph - 0.00 in Snow Light Snow
3:56 AM 25.0 °F 16.3 °F 19.9 °F 81% 30.06 in 10.0 mi NNW 8.1 mph - 0.00 in   Overcast
4:56 AM 25.0 °F 16.3 °F 19.9 °F 81% 30.07 in 6.0 mi NNW 8.1 mph - 0.00 in Snow Light Snow
5:22 AM 24.8 °F 14.6 °F 17.6 °F 74% 30.03 in 8.0 mi NNW 10.4 mph - 0.00 in Snow Light Snow
5:56 AM 24.1 °F 17.0 °F 19.0 °F 81% 30.07 in 6.0 mi North 5.8 mph - 0.00 in Snow Light Snow
6:08 AM 24.8 °F 17.9 °F 19.4 °F 80% 30.04 in 8.0 mi North 5.8 mph - 0.00 in Snow Light Snow
6:35 AM 24.8 °F 17.9 °F 19.4 °F 80% 30.04 in 7.0 mi North 5.8 mph - 0.00 in Snow Light Snow
6:56 AM 24.1 °F 16.0 °F 19.0 °F 81% 30.07 in 10.0 mi North 6.9 mph - 0.00 in   Overcast
7:56 AM 24.1 °F 18.2 °F 18.0 °F 77% 30.08 in 10.0 mi NNW 4.6 mph - N/A   Overcast
8:56 AM 26.1 °F 18.4 °F 17.1 °F 69% 30.09 in 7.0 mi WNW 6.9 mph - 0.00 in Snow Light Snow
9:56 AM 27.0 °F 17.3 °F 18.0 °F 69% 30.09 in 9.0 mi WNW 10.4 mph - 0.00 in Snow Light Snow
10:56 AM 28.0 °F 16.1 °F 16.0 °F 61% 30.09 in 10.0 mi NW 16.1 mph 23.0 mph 0.00 in   Mostly Cloudy
11:56 AM 28.9 °F 17.7 °F 15.1 °F 56% 30.09 in 10.0 mi NW 15.0 mph - N/A   Overcast
12:56 PM 28.0 °F 17.0 °F 16.0 °F 61% 30.08 in 10.0 mi NNW 13.8 mph 21.9 mph N/A   Overcast
1:56 PM 30.0 °F 19.1 °F 16.0 °F 56% 30.06 in 10.0 mi WNW 15.0 mph 20.7 mph N/A   Overcast
2:56 PM 28.9 °F 17.7 °F 15.1 °F 56% 30.06 in 10.0 mi NW 15.0 mph 20.7 mph N/A   Overcast
3:56 PM 30.0 °F 20.5 °F 15.1 °F 54% 30.06 in 10.0 mi NW 11.5 mph 19.6 mph N/A   Overcast
4:56 PM 30.0 °F 20.5 °F 15.1 °F 54% 30.07 in 10.0 mi NW 11.5 mph - N/A   Overcast
5:56 PM 28.9 °F 18.6 °F 15.1 °F 56% 30.08 in 10.0 mi NW 12.7 mph - N/A   Overcast
6:56 PM 28.9 °F 21.1 °F 16.0 °F 58% 30.09 in 10.0 mi NW 8.1 mph - N/A   Overcast
7:56 PM 28.9 °F 21.9 °F 15.1 °F 56% 30.09 in 10.0 mi NW 6.9 mph - N/A   Overcast
8:56 PM 28.9 °F 23.9 °F 16.0 °F 58% 30.10 in 10.0 mi WNW 4.6 mph - N/A   Overcast
9:56 PM 28.0 °F 22.8 °F 16.0 °F 61% 30.10 in 10.0 mi WNW 4.6 mph - N/A   Overcast
10:56 PM 24.1 °F 18.2 °F 16.0 °F 71% 30.10 in 10.0 mi West 4.6 mph - N/A   Scattered Clouds
11:56 PM 25.0 °F 20.7 °F 17.1 °F 72% 30.11 in 10.0 mi WNW 3.5 mph - N/A   Clear